Flag for U.S.A. Weather past 2 weeks in Dover, Delaware, U.S.A.

Now
82 °F

Passing clouds.


Feels Like: 84 °F
Forecast: 68 / 82 °F
Wind: 20 mph from West

Location: Dover Air Force Base

Current Time: Jul 28, 2014 at 11:53:40 AM

Latest Report: Jul 28, 2014 at 10:58 AM


Visibility: 10 mi

Pressure: 29.61 "Hg

Humidity: 58%

Dew point: 66 °F

Location of DoverLocation

Historic Weather in Dover — Graph

°F

Dover temperature yesterday

Maximum temperature yesterday: 84 °F (at 1:58 PM)
Minimum temperature yesterday: 70 °F (at 1:58 AM)
Average temperature yesterday: 77 °F

Past Weeks' High & Low Weather Summary

 TemperatureHumidityPressure
High91 °F (Jul 14, 3:58 PM)100% (Jul 14, 1:58 AM)30.23 "Hg (Jul 14, 1:58 AM)
Low60 °F (Jul 25, 4:58 AM)38% (Jul 18, 5:58 PM)29.56 "Hg (Jul 28, 4:58 AM)
Average75 °F81%29.97 "Hg
* Reported Jul 13 10:58 AM — Jul 28 10:58 AM, Dover, Weather by CustomWeather, © 2014

Note: Actual official high and low records may vary slightly from our data, if they occured in-between our weather recording intervals... More about our weather records

Advertising

Dover weather history for previous 24 hours

 ConditionsComfort  
Time TempWeatherWind HumidityBarometerVisibility
10:58 AM
Jul 28
82 °FPassing clouds.20 mph58%29.61 "Hg10 mi
9:58 AM82 °FScattered clouds.16 mph61%29.60 "Hg10 mi
8:58 AM81 °FSunny.12 mph77%29.59 "Hg10 mi
7:58 AM78 °FSunny.9 mph81%29.59 "Hg10 mi
6:58 AM75 °FPassing clouds.8 mph100%29.57 "Hg10 mi
5:58 AM74 °FClear.9 mph100%29.56 "Hg10 mi
4:58 AM75 °FPassing clouds.7 mph100%29.56 "Hg10 mi
4:03 AM75 °FPartly cloudy.5 mph100%29.56 "Hg10 mi
3:58 AM75 °FPassing clouds.6 mph99%29.57 "Hg10 mi
2:58 AM75 °FOvercast.8 mph98%29.59 "Hg10 mi
1:58 AM76 °FMostly cloudy.7 mph96%29.61 "Hg10 mi
12:58 AM76 °FOvercast.7 mph94%29.63 "Hg10 mi
11:58 PM
Jul 27
76 °FPassing clouds.12 mph93%29.65 "Hg10 mi
10:58 PM75 °FPassing clouds.9 mph96%29.67 "Hg10 mi
9:58 PM76 °FPassing clouds.9 mph90%29.69 "Hg10 mi
8:58 PM78 °FMostly cloudy.10 mph86%29.71 "Hg10 mi
7:58 PM79 °FOvercast.12 mph82%29.70 "Hg10 mi
6:58 PM80 °FPassing clouds.10 mph78%29.70 "Hg10 mi
5:58 PM82 °FSunny.14 mph73%29.72 "Hg10 mi
4:58 PM83 °FPassing clouds.15 mph72%29.74 "Hg10 mi
3:58 PM81 °FPartly sunny.17 mph75%29.76 "Hg10 mi
2:58 PM84 °FScattered clouds.16 mph70%29.77 "Hg10 mi
1:58 PM84 °FPassing clouds.15 mph71%29.78 "Hg10 mi
12:58 PM81 °FBroken clouds.9 mph73%29.78 "Hg10 mi
11:58 AM81 °FBroken clouds.7 mph72%29.78 "Hg10 mi
Weather by CustomWeather, © 2014

See weather overviewHow to use our weather pages